Waarnemingen

Advertentie
Mijn weer
Spa/La Sauveniere, België (6490): temperatuur & dauwpunt: 20.09.2020 09:00:00 - 26.09.2020 09:00:00 (CEST)Spa/La Sauveniere, België (6490): windsnelheid & windstoten: 20.09.2020 09:00:00 - 26.09.2020 09:00:00 (CEST)Spa/La Sauveniere, België (6490): windrichting: 20.09.2020 09:00:00 - 26.09.2020 09:00:00 (CEST)Spa/La Sauveniere, België (6490): luchtdruk: 20.09.2020 09:00:00 - 26.09.2020 09:00:00 (CEST)Spa/La Sauveniere, België (6490): zicht: 20.09.2020 09:00:00 - 26.09.2020 09:00:00 (CEST)
Datum & Tijd tt [°C] td [°C] ff [km/u] ff [kn] fx [km/u] fx [kn] dd ppp [hPa] vv [km]
26.09.2020 09:00:00 7,2 6,8 18 10 40 21 NNW 997,9 4,0
26.09.2020 08:00:00 7,6 7,4 18 10 - - WNW 997,1 2,8
26.09.2020 07:00:00 7,5 7,3 22 12 43 23 WNW 996,6 2,8
26.09.2020 06:00:00 7,3 7,1 18 10 47 25 WNW 996,1 3,2
26.09.2020 05:00:00 7,0 6,7 25 14 - - W 995,9 6
26.09.2020 04:00:00 6,6 5,9 29 16 58 31 WZW 995,9 8
26.09.2020 03:00:00 6,4 5,8 32 18 61 33 W 996,8 4,3
26.09.2020 02:00:00 6,4 5,7 25 14 - - W 998,3 5
26.09.2020 01:00:00 6,6 6,3 29 16 54 29 W 998,6 3,3
26.09.2020 00:00:00 6,6 6,2 25 14 47 25 W 998,9 3,8
25.09.2020 23:00:00 6,5 6,2 22 12 - - W 999,0 4,0
25.09.2020 22:00:00 6,7 6,1 22 12 47 25 W 999,1 8
25.09.2020 21:00:00 7,0 6,3 22 12 43 23 W 999,1 12
25.09.2020 20:00:00 7,0 6,4 22 12 - - W 999,4 10
25.09.2020 19:00:00 7,3 6,6 18 10 32 18 W 999,6 19
25.09.2020 18:00:00 7,5 6,6 11 6 32 18 W 999,4 45
25.09.2020 17:00:00 8,9 6,2 14 8 - - W 998,6 45
25.09.2020 16:00:00 9,8 6,1 18 10 29 16 WZW 997,8 40
25.09.2020 15:00:00 10,7 7,4 14 8 29 16 ZW 996,6 45
25.09.2020 14:00:00 8,8 6,8 14 8 - - ZW 997,2 30
25.09.2020 13:00:00 8,3 6,4 18 10 36 19 ZZW 997,6 29
25.09.2020 12:00:00 8,1 6,2 14 8 29 16 ZZW 997,6 45
25.09.2020 11:00:00 7,0 6,2 14 8 - - ZZW 998,1 5
25.09.2020 10:00:00 7,2 5,5 18 10 29 16 Z 997,4 35
25.09.2020 09:00:00 6,4 5,5 11 6 29 16 Z 997,6 13
25.09.2020 08:00:00 6,0 4,7 14 8 - - Z 997,7 35
25.09.2020 07:00:00 5,6 4,6 18 10 36 19 Z 998,1 45
25.09.2020 06:00:00 6,3 5,1 18 10 32 18 ZZW 998,1 45
25.09.2020 05:00:00 7,4 6,5 14 8 - - ZW 998,1 35
25.09.2020 04:00:00 8,0 6,8 22 12 36 19 ZW 998,3 45
25.09.2020 03:00:00 8,3 7,3 14 8 32 18 ZZW 997,9 45
25.09.2020 02:00:00 8,7 7,6 18 10 - - ZW 998,0 35
25.09.2020 01:00:00 9,0 7,3 22 12 47 25 WZW 998,4 8
25.09.2020 00:00:00 11,6 10,3 14 8 25 14 ZZW 997,5 40
24.09.2020 23:00:00 11,1 10,5 14 8 - - Z 998,2 45
24.09.2020 22:00:00 10,6 9,5 11 6 29 16 ZZO 999,4 45
24.09.2020 21:00:00 13,0 9,3 18 10 29 16 Z 999,2 23
24.09.2020 20:00:00 13,7 7,3 14 8 - - ZZO 999,4 45
24.09.2020 19:00:00 14,1 6,5 14 8 40 21 Z 1000,4 45
24.09.2020 18:00:00 14,6 5,5 22 12 36 19 Z 1001,2 45
24.09.2020 17:00:00 15,0 4,8 22 12 - - ZZW 1002,0 40
24.09.2020 16:00:00 15,5 4,5 22 12 40 21 ZZW 1002,4 40
24.09.2020 15:00:00 14,6 4,8 22 12 40 21 ZZW 1003,7 40
24.09.2020 14:00:00 13,6 5,3 18 10 - - ZZW 1004,4 40
24.09.2020 13:00:00 12,6 5,0 18 10 40 21 ZZW 1005,1 40
24.09.2020 12:00:00 12,3 5,9 18 10 36 19 ZZW 1005,6 40
24.09.2020 11:00:00 10,7 6,2 22 12 - - ZZW 1005,9 35
24.09.2020 10:00:00 9,4 7,0 14 8 32 18 ZZW 1006,4 35
24.09.2020 09:00:00 9,1 7,8 14 8 29 16 ZW 1006,3 29
24.09.2020 08:00:00 9,0 7,9 14 8 - - ZW 1006,2 23
24.09.2020 07:00:00 9,1 8,2 18 10 32 18 ZW 1005,8 25
24.09.2020 06:00:00 9,4 8,4 14 8 29 16 WZW 1005,2 26
24.09.2020 05:00:00 9,8 8,8 14 8 - - WZW 1004,4 21
24.09.2020 04:00:00 10,5 9,5 18 10 50 27 WZW 1003,7 14
24.09.2020 03:00:00 14,0 13,1 22 12 40 21 ZW 1001,6 13
24.09.2020 02:00:00 13,9 13,0 18 10 - - ZZW 1001,5 40
24.09.2020 01:00:00 14,0 12,8 22 12 40 21 Z 1001,6 30
24.09.2020 00:00:00 14,5 12,1 11 6 29 16 Z 1001,7 8
23.09.2020 23:00:00 16,4 10,8 18 10 - - Z 1001,9 45
23.09.2020 22:00:00 16,2 10,9 14 8 29 16 Z 1002,9 45
23.09.2020 21:00:00 16,1 11,1 14 8 22 12 ZZO 1003,2 45
23.09.2020 20:00:00 16,8 11,1 11 6 - - Z 1003,6 26
23.09.2020 19:00:00 17,8 11,0 14 8 32 18 ZZW 1003,7 45
23.09.2020 18:00:00 18,7 10,1 14 8 36 19 ZW 1004,0 45
23.09.2020 17:00:00 19,2 9,8 22 12 - - ZW 1004,3 40
23.09.2020 16:00:00 19,2 10,9 22 12 36 19 ZW 1004,8 45
23.09.2020 15:00:00 19,8 10,6 22 12 40 21 ZW 1005,1 40
23.09.2020 14:00:00 18,5 10,8 22 12 - - ZW 1005,9 40
23.09.2020 13:00:00 18,1 11,0 18 10 36 19 ZZW 1006,2 24
23.09.2020 12:00:00 17,0 10,5 11 6 25 14 Z 1006,9 26
23.09.2020 11:00:00 16,1 8,8 14 8 - - Z 1007,2 27
23.09.2020 10:00:00 14,2 6,3 22 12 32 18 ZZW 1007,5 24
23.09.2020 09:00:00 14,3 7,0 14 8 22 12 Z 1007,3 17
23.09.2020 08:00:00 - - - - - - - - -
23.09.2020 07:00:00 - - - - - - - - -
23.09.2020 06:00:00 - - - - - - - - -
23.09.2020 05:00:00 - - - - - - - - -
23.09.2020 04:00:00 - - - - - - - - -
23.09.2020 03:00:00 - - - - - - - - -
23.09.2020 02:00:00 - - - - - - - - -
23.09.2020 01:00:00 - - - - - - - - -
23.09.2020 00:00:00 - - - - - - - - -
22.09.2020 23:00:00 16,1 4,5 11 6 - - ZW 1008,3 45
22.09.2020 22:00:00 17,0 5,1 11 6 18 10 ZW 1008,3 45
22.09.2020 21:00:00 16,3 5,0 11 6 14 8 ZZW 1008,4 45
22.09.2020 20:00:00 17,0 6,7 7 4 - - ZZW 1008,2 30
22.09.2020 19:00:00 21,1 5,9 7 4 18 10 WZW 1007,6 35
22.09.2020 18:00:00 22,4 6,3 11 6 22 12 WNW 1007,5 35
22.09.2020 17:00:00 23,1 7,1 11 6 - - W 1008,1 30
22.09.2020 16:00:00 22,7 7,4 11 6 22 12 W 1008,8 35
22.09.2020 15:00:00 22,9 7,1 11 6 22 12 WNW 1009,0 30
22.09.2020 14:00:00 22,6 6,3 11 6 - - ZW 1009,6 26
22.09.2020 13:00:00 22,0 7,3 7 4 18 10 ZZW 1010,2 30
22.09.2020 12:00:00 21,2 6,8 4 2 7 4 Z 1010,8 29
22.09.2020 11:00:00 20,3 8,3 0 0 - - N 1011,5 29
22.09.2020 10:00:00 17,1 8,9 7 4 11 6 ZZO 1012,0 28
22.09.2020 09:00:00 13,0 8,4 7 4 11 6 ZZO 1012,9 15
22.09.2020 08:00:00 12,1 6,4 4 2 - - ZO 1012,8 17
22.09.2020 07:00:00 11,8 6,6 4 2 7 4 ZO 1013,1 17
22.09.2020 06:00:00 12,3 6,8 4 2 7 4 ZO 1013,1 20
22.09.2020 05:00:00 12,2 6,4 4 2 - - ZO 1013,6 20
22.09.2020 04:00:00 13,0 6,6 4 2 7 4 ZO 1013,7 24
22.09.2020 03:00:00 12,6 6,7 7 4 7 4 ZO 1014,1 21
22.09.2020 02:00:00 12,3 6,4 4 2 - - ZW 1014,6 40
22.09.2020 01:00:00 12,6 6,3 4 2 7 4 ZZO 1014,8 40
22.09.2020 00:00:00 13,4 6,1 7 4 7 4 ZZO 1014,9 45
21.09.2020 23:00:00 13,5 6,8 4 2 - - OZO 1015,2 40
21.09.2020 22:00:00 14,8 6,9 7 4 11 6 OZO 1015,0 45
21.09.2020 21:00:00 15,0 7,0 7 4 7 4 O 1015,2 45
21.09.2020 20:00:00 16,4 7,2 4 2 - - OZO 1014,8 29
21.09.2020 19:00:00 19,6 6,2 7 4 14 8 N 1014,3 30
21.09.2020 18:00:00 21,2 6,4 11 6 18 10 N 1014,1 30
21.09.2020 17:00:00 22,2 6,6 - - - - - 1014,2 30
21.09.2020 16:00:00 22,2 7,3 11 6 18 10 NNW 1014,2 30
21.09.2020 15:00:00 22,2 3,5 7 4 18 10 NNO 1014,5 35
21.09.2020 14:00:00 22,1 5,4 11 6 - - NW 1014,8 30
21.09.2020 13:00:00 21,4 4,4 4 2 14 8 NNW 1015,0 45
21.09.2020 12:00:00 20,8 5,4 0 0 11 6 N 1015,3 40
21.09.2020 11:00:00 19,3 4,8 4 2 - - ONO 1015,8 40
21.09.2020 10:00:00 - - 7 4 7 4 O - 40
21.09.2020 09:00:00 12,7 5,7 4 2 7 4 OZO 1017,2 40
21.09.2020 08:00:00 10,4 5,0 4 2 - - OZO 1017,3 45
21.09.2020 07:00:00 11,8 4,9 4 2 11 6 ZW 1016,7 45
21.09.2020 06:00:00 13,5 5,3 11 6 18 10 - 1016,3 45
21.09.2020 05:00:00 13,5 4,4 14 8 - - ZZO 1016,3 45
21.09.2020 04:00:00 13,5 4,2 11 6 18 10 ZZO 1016,7 45
21.09.2020 03:00:00 14,6 5,1 14 8 22 12 ZZO 1016,7 45
21.09.2020 02:00:00 15,1 5,7 14 8 - - ZZO 1016,7 45
21.09.2020 01:00:00 14,8 6,4 11 6 18 10 ZO 1016,9 45
21.09.2020 00:00:00 14,3 6,1 7 4 14 8 O 1017,2 40
20.09.2020 23:00:00 14,7 5,4 11 6 - - OZO 1017,2 30
20.09.2020 22:00:00 15,4 4,0 7 4 11 6 O 1017,2 40
20.09.2020 21:00:00 15,2 5,1 7 4 11 6 O 1017,0 45
20.09.2020 20:00:00 16,5 5,1 4 2 - - O 1016,3 18
20.09.2020 19:00:00 19,4 4,5 7 4 22 12 O 1015,6 40
20.09.2020 18:00:00 21,0 3,6 14 8 25 14 O 1015,1 40
20.09.2020 17:00:00 23,0 4,8 14 8 - - N 1014,5 40
20.09.2020 16:00:00 23,6 6,0 11 6 22 12 NNO 1014,5 28
20.09.2020 15:00:00 23,4 5,5 11 6 18 10 NNW 1014,8 35
20.09.2020 14:00:00 23,4 3,3 4 2 - - - 1015,1 30
20.09.2020 13:00:00 22,3 4,9 7 4 25 14 O 1015,5 35
20.09.2020 12:00:00 20,3 7,0 11 6 18 10 OZO 1016,1 35
20.09.2020 11:00:00 20,1 8,3 7 4 - - OZO 1016,0 40
20.09.2020 10:00:00 18,3 10,4 7 4 11 6 ZZO 1015,7 35
20.09.2020 09:00:00 14,6 8,5 4 2 7 4 ZZO 1016,2 45

tt = temperatuur
td = dauwpunt
ff = windsnelheid
fx = windstoten
dd = windrichting
ppp = luchtdruk
vv = zicht

Weerstations in de omgeving